Bronx, NY (10469)

4:28 AM EST on February 22, 2017 (GMT -0500)
Allerton | | Change Station

Elev 124 ft 40.86 °N, 73.86 °W | Updated 1 minute ago

Mostly Cloudy
Mostly Cloudy
43.9 °F
Feels Like 44 °F
N
0.6
Wind Variable Wind from SSW
Gusts 1.9 mph

Today
High -- | Low -- °F
--% Chance of Precip.
Yesterday
High -- | Low -- °F
Precip. -- in
Pressure 30.08 in
Visibility 10.0 miles
Clouds Overcast 11000 ft
Windchill 44 °F
Dew Point 36 °F
Humidity 74%
Rainfall Not available.
Snow Depth Not available.
6:39 AM 5:38 PM
Waning Crescent, 18% visible
METAR KLGA 220851Z 21006KT 10SM OVC110 07/02 A3008 RMK AO2 SLP184 T00720017 55006 $
Pressure 30.08 in
Visibility 10.0 miles
Clouds Overcast 11000 ft
Windchill 44 °F
Dew Point 36 °F
Humidity 74%
Rainfall Not available.
Snow Depth Not available.
6:39 AM 5:38 PM
Waning Crescent, 18% visible
METAR KLGA 220851Z 21006KT 10SM OVC110 07/02 A3008 RMK AO2 SLP184 T00720017 55006 $

Get Your Daily Forecast Email!

Thanks for signing up!

Be on the lookout for a verification email in your inbox.

You'll start receiving the daily forecast at 8 AM.

×

10-Day Weather Forecast

Almanac

Astronomy

Feb. 22, 2017 Rise Set
Actual Time
Civil Twilight
Nautical Twilight
Astronomical Twilight
Moon
Length of Visible Light
Length of Day
Tomorrow will be .
, % of the Moon is Illuminated

Today's Extremes

State Highs State Lows

Community

WunderPhotos

Upload Photos

1,962,540 photos uploaded!

WunderBlog® & News

Nearby

Air Quality

  Air Quality AQ Index Pollutant
Not available.

Snow Depth

Station Depth Elevation

Earthquake Activity

City Distance Mag. Time & Date
Minimum magnitude displayed is 2.5.

Coastal Water Temperatures

Place Temperature

Stations

Nearby Weather Stations

Station Location Temp. Windchill Dew Point Humidity Wind Precip. Elev Updated Type
                   

Watches & Warnings

There are currently no watches in effect.